Simultaneous Nadir Overpasses (SNOs) Predictions

Prediction of SNOs between AQUA and METOP-A Satellite Orbit:

Table of predicted SNOs for the next 14.0 days since TLE Epoch: 5/28/2016
Index Date (AQUA) Time (AQUA) Lat,Lon (AQUA) SZA (AQUA ) Date (METOP-A) Time (METOP-A) Lat,Lon (METOP-A) SZA (METOP-A ) Distance(km) Time Diff (sec)
1 05/28/2016 05:50:00 -73.87, -93.32 127.68 05/28/2016 05:49:23 -73.87, -93.31 127.67 0.30 37
2 05/28/2016 06:39:29 73.94, 74.16 52.39 05/28/2016 06:40:02 73.93, 74.17 52.38 1.00 33
3 05/31/2016 01:24:15 -73.87, -26.89 128.09 05/31/2016 01:23:45 -73.89, -26.84 128.07 2.56 30
4 05/31/2016 02:13:44 73.95, 140.59 51.98 05/31/2016 02:14:24 73.95, 140.63 51.98 1.54 40
5 06/02/2016 20:58:29 -73.89, 39.51 128.44 06/02/2016 20:58:07 -73.87, 39.50 128.46 2.62 22
6 06/02/2016 21:47:58 73.96,-153.01 51.64 06/02/2016 21:48:45 73.97,-152.92 51.64 3.10 47
7 06/05/2016 15:43:07 73.31, -60.46 50.64 06/05/2016 15:42:00 73.26, -62.82 50.68 75.87 67
8 06/05/2016 16:32:43 -73.86, 106.01 128.79 06/05/2016 16:32:29 -73.88, 105.95 128.76 3.35 14
9 06/05/2016 17:22:12 73.94, -86.52 51.29 06/05/2016 17:23:08 73.94, -86.59 51.29 2.30 56
10 06/08/2016 11:17:27 73.61, 5.35 50.69 06/08/2016 11:16:16 73.57, 4.29 50.70 33.64 71
11 06/08/2016 12:06:58 -73.89, 172.38 129.01 06/08/2016 12:06:51 -73.90, 172.40 129.00 1.02 7
12 06/08/2016 12:56:27 73.97, -20.16 51.07 06/08/2016 12:57:30 73.95, -20.16 51.04 2.53 63




NCC Satellite Simultaneous Nadir Overpasses (SNOs) Prediction Service
